Tracking 30995 objects as of 6-Jul-2025
HD Live streaming from Space Station
objects crossing your sky now

STARLINK-4768

Track STARLINK-4768 now!
10-day predictions
STARLINK-4768 is classified as:


NORAD ID: 53806
Int'l Code: 2022-111AK
Perigee: 546.2 km
Apogee: 547.6 km
Inclination: 53.2 °
Period: 95.4 minutes
Semi major axis: 6917 km
RCS: Unknown
Launch date: September 11, 2022
Source: United States (US)
Launch site: AIR FORCE EASTERN TEST RANGE (AFETR)
Your satellite tracking list
Your tracking list is empty




NASA's NSSDC Master Catalog

Two Line Element Set (TLE):
1 53806U 22111AK  25186.57940411 -.00000085  00000-0  12744-4 0  9998
2 53806  53.2178 278.2881 0001060  84.0343 276.0770 15.08838800156726
Source of the keplerian elements: AFSPC